Torna al catalogo

ONEWEB-0686

AttivoComunicazioniPO
NORAD 56721·PAYLOAD·🇬🇧 United Kingdom

Lanciato May 20, 2023 da Vandenberg Space Force Base

Loading…

Prossimi Passaggi (prossime 24 ore)

TLE

AggiornatoSource: CelesTrak SupGP

Epoca: Sep 14, 2026, 14:21 UTC

1 56721C 23068M   26257.59843009 -.00000439  00000+0 -11495-2 0  2576
2 56721  87.9134 211.0320 0001769  76.2180  27.7094 13.16590638    13

Traccia ONEWEB-0686 in tempo reale con AllMySat

Download on the App Store